Other Surface Observations
Issued by NWS

Home | Current Version | Previous Version | Text Only | Print | Product List | Glossary On
Versions: 1 2 3 4 5 6 7 8 9 10 11 12 13 14 15 16 17 18 19 20 21 22 23 24 25 26 27 28 29 30 31 32 33 34 35 36 37 38 39 40 41 42 43 44 45 46 47 48 49 50
000
SXUS52 KTAE 051118
OSOTAE
OSOTAE
North Florida/South Alabama/Southwest Georgia Weather Roundup
National Weather Service Tallahassee Florida
600 AM EST THU MAR 05 2015

Note: "fair" indicates few or no clouds below 12,000 feet with no
significant weather and/or obstructions to visibility.

!FLZ017-115-028-034-025-051200
...North Florida...

CITY           SKY/WX    TMP DP  RH WIND       PRES   REMARKS
TALLAHASSEE    CLOUDY    69  66  90 S3        30.03R
APALACHICOLA   FOG       69  66  90 SW3       30.02R VSB 1/2
PERRY          NOT AVBL
CROSS CITY       N/A     61  60  97 CALM      30.05R
JACKSONVILLE   MOCLDY    59  59 100 S3        30.05R
$$

!FLZ112-006-005-002-011-051200
...Florida Panhandle...

CITY           SKY/WX    TMP DP  RH WIND       PRES   REMARKS
MARIANNA       PTCLDY    69  69 100 S9        29.95F
BONIFAY        CLOUDY    70  67  90 S8        29.97R
PANAMA CITY NW CLOUDY    69  68  96 S10       29.96F
TYNDALL AFB    CLOUDY    68  68 100 S15       29.98F FOG
TYND DRONE APT FOG       67  67 100 S10       29.98F VSB 1/2
DE FUNIAK SPR  CLOUDY    69  68  98 S12       29.97R
EGLIN AFB      FOG       66  66 100 S8        29.94R VSB 1/4
DESTIN         FOG       67  67 100 S7        29.96R VSB 1/2
HURLBURT       FOG       68  64  84 S9        29.95R VSB 1/4
CRESTVIEW      CLOUDY    71  69  93 SW12      29.97R
PENSACOLA      FOG       68  67  96 S10       29.95S VSB 1/4
$$

!ALZ063-066-051200
...South Alabama...

CITY           SKY/WX    TMP DP  RH WIND       PRES   REMARKS
DOTHAN         CLOUDY    70  67  90 SW12      29.99R
OZARK CAIRNS   CLOUDY    70  65  83 S8        29.95R
FT RUCKER HELI CLOUDY    71  67  87 SW10      29.94R
RUCKER HELI 3  MOCLDY    70  66  88 S13G22    29.96R
RUCKER HELI 2  CLOUDY    70  67  90 S5        29.95R
FLORALA APT    CLOUDY    70  67  90 SW10      29.97R
ANDALUSIA      LGT RAIN  74  68  81 SW7       29.94R
TROY           CLOUDY    66  64  93 S6        29.93S
EUFALA         CLOUDY    72  66  81 SW8       29.92R
MOBILE         CLOUDY    69  68  96 SW9       29.94S
$$

!GAZ120>161-051200
...Southwest and South Central Georgia...

CITY           SKY/WX    TMP DP  RH WIND       PRES   REMARKS
THOMASVILLE    CLOUDY    68 N/A N/A S6        30.05R
BAINBRIDGE     CLEAR     72  68  88 S9        29.99F
MOODY AFB      CLOUDY    68  66  92 S12       30.03R
VALDOSTA       CLOUDY    68  67  96 VRB6      30.05R
MOULTRIE       CLOUDY    68  68 100 S6        30.04R
BLAKELY        CLOUDY    70  70 100 SW9       29.97R
ALBANY         CLEAR     68  65  90 S16       29.97F
TIFTON         CLOUDY    67  65  94 S9        30.01R
FITZGERALD     CLOUDY    69  67  92 SW15      30.02S
CORDELE        CLOUDY    69  65  87 SW9G16    29.97S
AMERICUS       CLOUDY    68  66  94 SW10      29.97R
HOMERVILLE     MOCLDY    68  68 100 SW5       30.05R
$$

!GMZ750-755-770-775-051200
...Coastal and Buoy Obs...

STATION/POSITION TIME  TEMP    WIND        PRES    VSBY  WAVE
                       AIR SEA DIR/SP/G                  HT/PER
                 (UTC) (F)     (DEG/KT/KT) (MB)    (MI)  (FT/S)
KEATON BEACH     1100   65     240/  4/  5 1017.9R
CEDAR KEY        1059   66     200/  4/  4 1018.4R
C TOWER          1100   69     190/ 15/ 16 1016.6R
APALACHICOLA BUO 1100   70 68  190/ 12/ 12 1016.8R         3/ 6
PANAMA CITY BUOY 0952   72 71  190/  8/  8 1016.2R         4/ 7
MOBILE BUOY      1025   73 71  190/  8/  8 1014.4R         5/ 8
ORANGE BCH AL BU 1100   68 65  190/ 10/ 12 1013.5R         3/ 7
$$



USA.gov is the U.S. government's official web portal to all federal, state and local government web resources and services.